GAOFEN 3

Last updated on Tue Nov 21 2023 00:02:24 GMT+0000 (Coordinated Universal Time)

1 41727U 16049A 23324.56647598 .00000088 00000+0 39855-4 0 9994 2 41727 98.4076 330.3204 0001480 119.7890 240.3447 14.42175420383211

Satellite not in orbit

GAOFEN 3